EW7906 Weather Reports


time (UTC)temp
C
wind
direction
speed
KPH
gust
KPH
rain 1hr
cm
rain 24hr
cm
rain mn
cm
humidity
%
barometer
mb
20260505160344 34 205 8.0 17.7 0.00 0.00 0.00 100 1008.1
20260505152844 33 217 3.2 14.5 0.00 0.00 0.00 100 1008.2
20260505152344 33 158 0.0 14.5 0.00 0.00 0.00 100 1008.2
20260505151844 33 202 3.2 14.5 0.00 0.00 0.00 100 1008.1
20260505151344 33 202 4.8 16.1 0.00 0.00 0.00 100 1008.0
20260505150845 33 147 4.8 19.3 0.00 0.00 0.00 100 1008.0
20260505140321 33 174 1.6 16.1 0.00 0.00 0.00 100 1007.5
20260505130256 33 175 0.0 17.7 0.00 0.00 0.00 100 1007.1
20260505124744 33 202 1.6 16.1 0.00 0.00 0.00 100 1006.9
20260505124244 33 182 8.0 14.5 0.00 0.00 0.00 100 1006.8
20260505123743 32 153 6.4 16.1 0.00 0.00 0.00 100 1006.8
20260505123243 32 154 8.0 16.1 0.00 0.00 0.00 100 1006.7
20260505122742 32 153 6.4 14.5 0.00 0.00 0.00 100 1006.6
20260505122242 32 180 3.2 14.5 0.00 0.00 0.00 100 1006.6
20260505121743 32 157 8.0 16.1 0.00 0.00 0.00 100 1006.5
20260505121245 32 199 6.4 16.1 0.00 0.00 0.00 100 1006.3
20260505120744 32 127 6.4 14.5 0.00 0.00 0.00 100 1006.3
20260505120244 32 189 8.0 14.5 0.00 0.00 0.00 100 1006.2
20260505115744 32 232 4.8 12.9 0.00 0.00 0.00 100 1006.2
20260505115515 32 180 3.2 11.3 0.00 0.00 0.00 100 1006.1
20260505114744 32 191 0.0 14.5 0.00 0.00 0.00 100 1006.1
20260505114515 32 184 6.4 16.1 0.00 0.00 0.00 100 1006.2
20260505113748 32 202 6.4 14.5 0.00 0.00 0.00 100 1006.2
20260505113744 32 144 8.0 16.1 0.00 0.00 0.00 100 1006.2
20260505112745 32 158 9.7 16.1 0.00 0.00 0.00 100 1006.2
20260505112244 32 136 1.6 16.1 0.00 0.00 0.00 100 1006.3
20260505111744 32 181 6.4 14.5 0.00 0.00 0.00 100 1006.1
20260505111244 32 164 8.0 16.1 0.00 0.00 0.00 100 1006.1
20260505110745 32 194 8.0 20.9 0.00 0.00 0.00 100 1006.2
20260505110244 32 185 6.4 20.9 0.00 0.00 0.00 100 1006.3
20260505101748 32 175 8.0 17.7 0.00 0.00 0.00 100 1006.5
20260505101743 32 146 1.6 17.7 0.00 0.00 0.00 100 1006.2
20260505100745 32 140 0.0 14.5 0.00 0.00 0.00 100 1006.5
20260505100243 32 156 4.8 17.7 0.00 0.00 0.00 100 1006.5
20260505095743 32 192 0.0 17.7 0.00 0.00 0.00 100 1006.5
20260505095243 32 164 3.2 17.7 0.00 0.00 0.00 100 1006.5
20260505094748 32 161 4.8 16.1 0.00 0.00 0.00 100 1006.2
20260505094744 32 177 0.0 17.7 0.00 0.00 0.00 100 1006.2
20260505093743 32 187 6.4 16.1 0.00 0.00 0.00 100 1006.5
20260505093243 32 143 3.2 14.5 0.00 0.00 0.00 100 1006.6
20260505092744 32 220 6.4 14.5 0.00 0.00 0.00 100 1006.6
20260505092244 32 122 0.0 14.5 0.00 0.00 0.00 100 1006.6
20260505091744 32 135 1.6 14.5 0.00 0.00 0.00 100 1006.6
20260505091228 32 167 1.6 19.3 0.00 0.00 0.00 100 1006.5
20260505090717 32 174 3.2 19.3 0.00 0.00 0.00 100 1006.6
20260505090217 32 174 3.2 16.1 0.00 0.00 0.00 100 1006.7
20260505085718 32 132 0.0 24.1 0.00 0.00 0.00 100 1006.7
20260505085212 32 175 9.7 24.1 0.00 0.00 0.00 100 1006.7
20260505084944 32 165 4.8 17.7 0.00 0.00 0.00 100 1006.6
20260505084201 32 127 9.7 17.7 0.00 0.00 0.00 100 1006.7
20260505084155 32 153 6.4 17.7 0.00 0.00 0.00 100 1006.8
20260505083153 32 180 9.7 19.3 0.00 0.00 0.00 100 1006.8
20260505082653 32 153 8.0 22.5 0.00 0.00 0.00 100 1006.8
20260505082152 32 233 9.7 22.5 0.00 0.00 0.00 100 1007.1
20260505081652 32 195 6.4 22.5 0.00 0.00 0.00 100 1007.2
20260505081152 32 101 9.7 22.5 0.00 0.00 0.00 100 1007.1
20260505080653 32 180 6.4 17.7 0.00 0.00 0.00 100 1007.2
20260505080151 32 199 4.8 17.7 0.00 0.00 0.00 100 1007.3
20260505075651 32 135 0.0 19.3 0.00 0.00 0.00 100 1007.4
20260505075149 32 209 9.7 19.3 0.00 0.00 0.00 100 1007.4
20260505074649 32 191 6.4 17.7 0.00 0.00 0.00 100 1007.5
20260505074148 32 174 8.0 17.7 0.00 0.00 0.00 100 1007.6
20260505073649 32 167 9.7 20.9 0.00 0.00 0.00 100 1007.6
20260505073150 32 196 12.9 20.9 0.00 0.00 0.00 100 1007.6
20260505072649 32 151 9.7 17.7 0.00 0.00 0.00 100 1007.7
20260505072148 32 112 4.8 17.7 0.00 0.00 0.00 100 1007.7
20260505071644 32 168 9.7 16.1 0.00 0.00 0.00 100 1007.8
20260505071144 32 156 0.0 19.3 0.00 0.00 0.00 100 1007.9
20260505070640 32 201 3.2 19.3 0.00 0.00 0.00 100 1007.9
20260505070140 32 118 3.2 14.5 0.00 0.00 0.00 100 1008.0
20260505065640 32 133 6.4 17.7 0.00 0.00 0.00 100 1008.1
20260505065139 32 151 9.7 17.7 0.00 0.00 0.00 100 1008.0
20260505064639 32 150 6.4 17.7 0.00 0.00 0.00 100 1008.1
20260505064139 32 146 8.0 27.4 0.00 0.00 0.00 100 1008.2
20260505063639 32 180 14.5 27.4 0.00 0.00 0.00 100 1008.3
20260505063138 32 170 9.7 19.3 0.00 0.00 0.00 100 1008.3
20260505062638 32 185 9.7 24.1 0.00 0.00 0.00 100 1008.3
20260505062147 32 201 11.3 27.4 0.00 0.00 0.00 100 1008.5
20260505061638 32 187 8.0 27.4 0.00 0.00 0.00 100 1008.5
20260505061138 32 144 8.0 19.3 0.00 0.00 0.00 100 1008.5
20260505060638 32 167 6.4 16.1 0.00 0.00 0.00 100 1008.6
20260505060138 32 168 8.0 19.3 0.00 0.00 0.00 100 1008.6
20260505055908 32 165 3.2 19.3 0.00 0.00 0.00 100 1008.6
20260505055405 32 194 6.4 14.5 0.00 0.00 0.00 100 1008.6
20260505054634 32 216 8.0 16.1 0.00 0.00 0.00 100 1008.6
20260505054132 32 192 8.0 16.1 0.00 0.00 0.00 100 1008.5
20260505053631 32 180 4.8 12.9 0.00 0.00 0.00 100 1008.5
20260505053137 32 120 11.3 20.9 0.00 0.00 0.00 100 1008.6
20260505053132 32 126 6.4 19.3 0.00 0.00 0.00 100 1008.6
20260505052131 32 144 6.4 20.9 0.00 0.00 0.00 100 1008.6
20260505051613 32 157 8.0 17.7 0.00 0.00 0.00 100 1008.6
20260505051113 32 157 6.4 17.7 0.00 0.00 0.00 100 1008.6
20260505050612 32 187 6.4 19.3 0.00 0.00 0.00 100 1008.6
20260505050111 32 185 6.4 20.9 0.00 0.00 0.00 100 1008.5
20260505041559 33 154 9.7 17.7 0.00 0.00 0.00 100 1008.5
20260505041101 33 140 6.4 17.7 0.00 0.00 0.00 100 1008.5
20260505040600 33 140 8.0 17.7 0.00 0.00 0.00 100 1008.4
20260505040058 33 151 8.0 14.5 0.00 0.00 0.00 100 1008.6
20260505035053 33 163 9.7 16.1 0.00 0.00 0.00 100 1008.6
20260505034553 33 202 1.6 16.1 0.00 0.00 0.00 100 1008.6
20260505034318 33 127 1.6 19.3 0.00 0.00 0.00 100 1008.6
20260505033546 33 222 8.0 19.3 0.00 0.00 0.00 100 1008.5
20260505033046 33 130 4.8 17.7 0.00 0.00 0.00 100 1008.5
20260505032544 33 172 1.6 14.5 0.00 0.00 0.00 100 1008.5
20260505032314 33 177 6.4 17.7 0.00 0.00 0.00 100 1008.5
20260505031815 33 171 6.4 17.7 0.00 0.00 0.00 100 1008.5
20260505031313 33 84 4.8 11.3 0.00 0.00 0.00 100 1008.4
20260505031148 33 146 3.2 14.5 0.00 0.00 0.00 100 1008.5
20260505030047 33 147 3.2 9.7 0.00 0.00 0.00 100 1008.5
20260505030043 33 129 8.0 14.5 0.00 0.00 0.00 100 1008.5
20260505025043 33 146 4.8 14.5 0.00 0.00 0.00 100 1008.5
20260505024542 34 172 6.4 14.5 0.00 0.00 0.00 100 1008.4
20260505024044 34 142 4.8 12.9 0.00 0.00 0.00 100 1008.4
20260505023544 34 132 4.8 12.9 0.00 0.00 0.00 100 1008.5
20260505023316 34 195 3.2 12.9 0.00 0.00 0.00 100 1008.4
20260505022544 34 203 6.4 12.9 0.00 0.00 0.00 100 1008.4
20260505022044 34 130 3.2 12.9 0.00 0.00 0.00 100 1008.4
20260505021542 34 146 0.0 12.9 0.00 0.00 0.00 100 1008.4
20260505021536 34 115 3.2 8.0 0.00 0.00 0.00 100 1008.4
20260505020517 34 115 0.0 9.7 0.00 0.00 0.00 100 1008.3
20260505015948 34 144 1.6 11.3 0.00 0.00 0.00 100 1008.3
20260505015447 34 156 0.0 11.3 0.00 0.00 0.00 100 1008.3
20260505014947 34 118 0.0 12.9 0.00 0.00 0.00 100 1008.2
20260505014444 34 118 1.6 12.9 0.00 0.00 0.00 100 1008.2
20260505013930 35 136 0.0 14.5 0.00 0.00 0.00 100 1008.2
20260505013429 35 180 1.6 14.5 0.00 0.00 0.00 100 1008.2
20260505012928 35 127 3.2 11.3 0.00 0.00 0.00 100 1008.2
20260505012428 35 157 0.0 11.3 0.00 0.00 0.00 100 1008.2
20260505011928 35 132 3.2 14.5 0.00 0.00 0.00 100 1008.2
20260505011419 35 132 1.6 14.5 0.00 0.00 0.00 100 1008.2
20260505010907 35 177 4.8 14.5 0.00 0.00 0.00 100 1008.1
20260505010408 35 178 0.0 16.1 0.00 0.00 0.00 100 1008.1
20260505005907 35 143 9.7 16.1 0.00 0.00 0.00 100 1008.0
20260505005407 35 133 0.0 16.1 0.00 0.00 0.00 100 1008.0
20260505004912 35 129 1.6 16.1 0.00 0.00 0.00 100 1008.1
20260505004908 35 161 4.8 16.1 0.00 0.00 0.00 100 1008.1
20260505003906 35 144 6.4 16.1 0.00 0.00 0.00 100 1008.0
20260505003407 35 157 11.3 16.1 0.00 0.00 0.00 100 1008.0
20260505002905 35 137 9.7 16.1 0.00 0.00 0.00 100 1008.0
20260505002404 36 181 1.6 16.1 0.00 0.00 0.00 100 1007.9
20260505001846 36 215 4.8 17.7 0.00 0.00 0.00 100 1007.8
20260505001344 36 171 8.0 20.9 0.00 0.00 0.00 100 1007.8
20260505000844 36 181 11.3 20.9 0.00 0.00 0.00 100 1007.7
20260505000344 36 139 6.4 24.1 0.00 0.00 0.00 100 1007.8
20260504235844 36 168 4.8 24.1 0.00 0.00 0.00 100 1007.9
20260504235343 36 220 8.0 22.5 0.00 0.00 0.00 100 1008.0
20260504234843 36 170 4.8 22.5 0.00 0.00 0.00 100 1008.1
20260504234344 36 184 8.0 22.5 0.00 0.00 0.00 100 1008.1
20260504233844 36 164 4.8 22.5 0.00 0.00 0.00 100 1008.3
20260504233345 36 170 9.7 17.7 0.00 0.00 0.00 100 1008.3
20260504232844 36 174 8.0 20.9 0.00 0.00 0.00 100 1008.3
20260504232344 36 151 6.4 20.9 0.00 0.00 0.00 100 1008.3
20260504231844 36 168 12.9 20.9 0.00 0.00 0.00 100 1008.3
20260504231614 36 147 11.3 19.3 0.00 0.00 0.00 100 1008.4
20260504230842 36 164 4.8 24.1 0.00 0.00 0.00 100 1008.3
20260504230343 36 203 11.3 24.1 0.00 0.00 0.00 100 1008.4
20260504225843 36 244 8.0 22.5 0.00 0.00 0.00 100 1008.5
20260504225343 36 225 11.3 22.5 0.00 0.00 0.00 100 1008.5
20260504224842 36 177 11.3 22.5 0.00 0.00 0.00 100 1008.7
20260504224342 36 212 9.7 24.1 0.00 0.00 0.00 100 1008.7
20260504223842 36 149 8.0 24.1 0.00 0.00 0.00 100 1008.8
20260504223343 36 174 11.3 24.1 0.00 0.00 0.00 100 1008.7
20260504222844 36 164 8.0 24.1 0.00 0.00 0.00 100 1008.7
20260504222613 36 147 11.3 17.7 0.00 0.00 0.00 100 1008.6
20260504221843 36 181 8.0 16.1 0.00 0.00 0.00 100 1008.8
20260504221342 36 143 9.7 20.9 0.00 0.00 0.00 100 1008.8
20260504220843 36 174 9.7 22.5 0.00 0.00 0.00 100 1008.8
20260504220343 36 191 12.9 22.5 0.00 0.00 0.00 100 1008.9
20260504215843 36 136 4.8 22.5 0.00 0.00 0.00 100 1009.0
20260504215343 37 219 12.9 22.5 0.00 0.00 0.00 100 1008.9
20260504214843 36 178 8.0 24.1 0.00 0.00 0.00 100 1008.8
20260504214342 36 195 8.0 24.1 0.00 0.00 0.00 100 1008.9
20260504213841 36 140 9.7 20.9 0.00 0.00 0.00 100 1009.0
20260504213342 37 177 6.4 20.9 0.00 0.00 0.00 100 1008.9
20260504213114 37 156 6.4 17.7 0.00 0.00 0.00 100 1009.1
20260504212343 36 161 11.3 17.7 0.00 0.00 0.00 100 1009.3
20260504211841 37 222 8.0 17.7 0.00 0.00 0.00 100 1009.4
20260504211341 37 156 9.7 17.7 0.00 0.00 0.00 100 1009.5
20260504210841 36 127 9.7 17.7 0.00 0.00 0.00 100 1009.4
20260504210339 37 90 8.0 17.7 0.00 0.00 0.00 100 1009.6
20260504210110 37 160 9.7 16.1 0.00 0.00 0.00 100 1009.9
20260504205608 37 142 11.3 16.1 0.00 0.00 0.00 100 1009.9
20260504204839 36 160 6.4 17.7 0.00 0.00 0.00 100 1010.0
20260504204835 37 164 8.0 17.7 0.00 0.00 0.00 100 1010.0
20260504203835 36 195 6.4 20.9 0.00 0.00 0.00 100 1009.9
20260504203335 36 167 3.2 20.9 0.00 0.00 0.00 100 1010.2
20260504203105 36 191 9.7 17.7 0.00 0.00 0.00 100 1010.3
20260504202341 36 216 9.7 19.3 0.00 0.00 0.00 100 1010.5
20260504202335 36 126 9.7 19.3 0.00 0.00 0.00 100 1010.4
20260504201334 36 112 0.0 17.7 0.00 0.00 0.00 100 1010.6
20260504200834 36 161 6.4 14.5 0.00 0.00 0.00 100 1010.7
20260504200334 36 209 1.6 17.7 0.00 0.00 0.00 100 1010.7
20260504195331 36 144 12.9 19.3 0.00 0.00 0.00 100 1011.0
20260504195102 36 172 9.7 19.3 0.00 0.00 0.00 100 1010.9
20260504194328 36 160 11.3 20.9 0.00 0.00 0.00 100 1011.2
20260504193828 36 157 8.0 20.9 0.00 0.00 0.00 100 1011.2
20260504193559 35 150 6.4 17.7 0.00 0.00 0.00 100 1011.1
20260504192827 36 236 8.0 17.7 0.00 0.00 0.00 100 1011.2
20260504192326 35 167 9.7 19.3 0.00 0.00 0.00 100 1011.3
20260504192057 36 133 8.0 19.3 0.00 0.00 0.00 100 1011.3
20260504191326 35 161 8.0 20.9 0.00 0.00 0.00 100 1011.5
20260504190825 36 229 8.0 20.9 0.00 0.00 0.00 100 1011.6
20260504190325 35 185 12.9 20.9 0.00 0.00 0.00 100 1011.7
20260504185826 36 172 11.3 20.9 0.00 0.00 0.00 100 1011.8
20260504185315 35 136 11.3 24.1 0.00 0.00 0.00 100 1011.8
20260504184816 34 143 9.7 24.1 0.00 0.00 0.00 100 1011.7
20260504184316 35 47 9.7 20.9 0.00 0.00 0.00 100 1011.8
20260504183819 35 153 9.7 22.5 0.00 0.00 0.00 100 1011.9
20260504183815 35 167 8.0 17.7 0.00 0.00 0.00 100 1011.8
20260504182815 35 111 9.7 22.5 0.00 0.00 0.00 100 1012.1
20260504182314 35 177 6.4 19.3 0.00 0.00 0.00 100 1012.2
20260504181812 34 137 8.0 19.3 0.00 0.00 0.00 100 1012.4
20260504181312 35 161 8.0 19.3 0.00 0.00 0.00 100 1012.4
20260504180812 35 139 11.3 17.7 0.00 0.00 0.00 100 1012.4
20260504180304 35 205 4.8 19.3 0.00 0.00 0.00 100 1012.4
20260504175804 35 203 6.4 19.3 0.00 0.00 0.00 100 1012.5
20260504175304 34 170 8.0 19.3 0.00 0.00 0.00 100 1012.4
20260504174804 34 182 11.3 19.3 0.00 0.00 0.00 100 1012.8
20260504174534 34 171 11.3 24.1 0.00 0.00 0.00 100 1012.9
20260504173803 34 168 9.7 24.1 0.00 0.00 0.00 100 1013.0
20260504173304 34 185 11.3 17.7 0.00 0.00 0.00 100 1013.2
20260504172807 33 144 9.7 19.3 0.00 0.00 0.00 100 1013.5
20260504172802 34 137 11.3 19.3 0.00 0.00 0.00 100 1013.3
20260504171803 33 168 11.3 29.0 0.00 0.00 0.00 100 1013.5
20260504171533 33 140 8.0 29.0 0.00 0.00 0.00 100 1013.6
20260504170800 33 125 9.7 24.1 0.00 0.00 0.00 100 1013.6
20260504170532 33 205 6.4 19.3 0.00 0.00 0.00 100 1013.6